Location: St. Louis
(38.6270°N, 90.1994°W)
Time: 20:10:37
(UTC-06:00)

Vanguard 1 - Pass Details

Date: 08 December 2021
Orbit: 652 x 3830 km, 34.2° (Epoch: 21 January)

Event Time Altitude Azimuth Distance (km) Brightness Sun altitude
Rises 19:47:46 0° 197° (SSW) 5,616 14.1 -36.0°
Reaches altitude 10° 19:51:42 10° 186° (S) 5,042 13.7 -36.8°
Enters shadow 20:01:01 28° 149° (SSE) 4,534 13.1 -38.6°
